When you browse on this site, cookies collect data to enhance your experience and personalize the content and advertising you see.
Visit our Privacy Policy to learn more. By continuing to use the site, you agree to this use of cookies and data.

Météo par heure à Middlesbrough

Ce jour, 11 Juillet, Samedi

Heure Température Précipitation Vent Pression Humidité
00:00 +8°C° 0 mm 4 m/s 765 mmHg 92%
01:00 +8°C° 0 mm 4 m/s 765 mmHg 92%
02:00 +8°C° 0 mm 5 m/s 765 mmHg 91%
03:00 +7°C° 0 mm 5 m/s 765 mmHg 91%
04:00 +8°C° 0 mm 4 m/s 765 mmHg 90%
05:00 +8°C° 0 mm 4 m/s 765 mmHg 88%
06:00 +10°C° 0 mm 4 m/s 766 mmHg 88%
07:00 +12°C° 0 mm 4 m/s 766 mmHg 82%
08:00 +13°C° 0 mm 4 m/s 767 mmHg 76%
09:00 +14°C° 0 mm 4 m/s 767 mmHg 70%
10:00 +16°C° 0 mm 3 m/s 767 mmHg 68%
11:00 +17°C° 0 mm 3 m/s 767 mmHg 66%
12:00 +17°C° 0 mm 3 m/s 767 mmHg 65%
13:00 +18°C° 0.1 mm 3 m/s 767 mmHg 66%
14:00 +18°C° 0.1 mm 3 m/s 767 mmHg 66%
15:00 +18°C° 0.1 mm 3 m/s 768 mmHg 67%
16:00 +18°C° 0.1 mm 3 m/s 768 mmHg 70%
17:00 +18°C° 0.1 mm 3 m/s 768 mmHg 73%
18:00 +17°C° 0.1 mm 3 m/s 768 mmHg 76%
19:00 +15°C° 0.1 mm 4 m/s 768 mmHg 80%
20:00 +13°C° 0.1 mm 4 m/s 768 mmHg 84%
21:00 +12°C° 0.1 mm 4 m/s 769 mmHg 88%
22:00 +11°C° 0 mm 4 m/s 769 mmHg 88%
23:00 +10°C° 0 mm 3 m/s 769 mmHg 88%

Demain, 12 Juillet, Dimanche

Heure Température Précipitation Vent Pression Humidité
00:00 +10°C° 0 mm 3 m/s 769 mmHg 89%
01:00 +9°C° 0 mm 3 m/s 769 mmHg 89%
02:00 +9°C° 0 mm 3 m/s 768 mmHg 89%
03:00 +9°C° 0 mm 3 m/s 768 mmHg 89%
04:00 +10°C° 0 mm 3 m/s 768 mmHg 87%
05:00 +10°C° 0 mm 3 m/s 768 mmHg 86%
06:00 +11°C° 0 mm 3 m/s 768 mmHg 84%
07:00 +13°C° 0 mm 3 m/s 769 mmHg 79%
08:00 +14°C° 0 mm 3 m/s 769 mmHg 74%
09:00 +17°C° 0 mm 3 m/s 769 mmHg 69%
10:00 +17°C° 0 mm 3 m/s 769 mmHg 69%
11:00 +18°C° 0 mm 3 m/s 769 mmHg 68%
12:00 +19°C° 0 mm 3 m/s 769 mmHg 67%
13:00 +19°C° 0 mm 3 m/s 769 mmHg 67%
14:00 +19°C° 0 mm 3 m/s 768 mmHg 67%
15:00 +19°C° 0 mm 4 m/s 768 mmHg 67%
16:00 +19°C° 0 mm 4 m/s 768 mmHg 69%
17:00 +18°C° 0 mm 4 m/s 767 mmHg 70%
18:00 +18°C° 0 mm 3 m/s 767 mmHg 72%
19:00 +16°C° 0 mm 3 m/s 767 mmHg 75%
20:00 +14°C° 0 mm 3 m/s 767 mmHg 78%
21:00 +12°C° 0 mm 3 m/s 767 mmHg 81%
22:00 +11°C° 0 mm 3 m/s 767 mmHg 81%
23:00 +11°C° 0 mm 3 m/s 767 mmHg 81%

Après-demain, 13 Juillet, Lundi

Heure Température Précipitation Vent Pression Humidité
00:00 +10°C° 0 mm 3 m/s 766 mmHg 80%
01:00 +11°C° 0 mm 4 m/s 766 mmHg 79%
02:00 +11°C° 0 mm 4 m/s 765 mmHg 77%
03:00 +11°C° 0 mm 4 m/s 765 mmHg 76%
04:00 +12°C° 0 mm 4 m/s 765 mmHg 77%
05:00 +12°C° 0 mm 4 m/s 764 mmHg 78%
06:00 +12°C° 0 mm 5 m/s 764 mmHg 79%
07:00 +12°C° 0 mm 4 m/s 764 mmHg 81%
08:00 +13°C° 0 mm 4 m/s 763 mmHg 83%
09:00 +13°C° 0 mm 4 m/s 763 mmHg 85%
10:00 +15°C° 0.1 mm 5 m/s 763 mmHg 82%
11:00 +16°C° 0.1 mm 6 m/s 763 mmHg 78%
12:00 +18°C° 0.1 mm 7 m/s 762 mmHg 75%
13:00 +18°C° 0.1 mm 7 m/s 762 mmHg 74%
14:00 +19°C° 0.1 mm 6 m/s 762 mmHg 73%
15:00 +20°C° 0.1 mm 6 m/s 761 mmHg 72%
16:00 +19°C° 0.1 mm 6 m/s 761 mmHg 74%
17:00 +19°C° 0.1 mm 5 m/s 761 mmHg 76%
18:00 +19°C° 0.1 mm 5 m/s 760 mmHg 77%
19:00 +17°C° 0 mm 4 m/s 760 mmHg 82%
20:00 +15°C° 0 mm 4 m/s 760 mmHg 87%
21:00 +14°C° 0 mm 4 m/s 760 mmHg 92%
22:00 +13°C° 0 mm 3 m/s 760 mmHg 92%
23:00 +13°C° 0 mm 3 m/s 760 mmHg 93%

14 Juillet, Mardi

Heure Température Précipitation Vent Pression Humidité
00:00 +12°C° 0 mm 3 m/s 760 mmHg 93%
01:00 +12°C° 0 mm 3 m/s 760 mmHg 93%
02:00 +11°C° 0 mm 3 m/s 760 mmHg 92%
03:00 +11°C° 0 mm 3 m/s 759 mmHg 91%
04:00 +11°C° 0 mm 3 m/s 759 mmHg 89%
05:00 +11°C° 0 mm 3 m/s 759 mmHg 86%
06:00 +12°C° 0 mm 4 m/s 759 mmHg 84%
07:00 +13°C° 0 mm 3 m/s 759 mmHg 78%
08:00 +14°C° 0 mm 3 m/s 759 mmHg 73%
09:00 +16°C° 0 mm 3 m/s 759 mmHg 68%
10:00 +17°C° 0 mm 3 m/s 759 mmHg 66%
11:00 +17°C° 0 mm 2 m/s 759 mmHg 65%
12:00 +18°C° 0 mm 2 m/s 759 mmHg 64%
13:00 +18°C° 0.1 mm 2 m/s 759 mmHg 69%
14:00 +17°C° 0.1 mm 2 m/s 758 mmHg 74%
15:00 +17°C° 0.1 mm 3 m/s 758 mmHg 78%
16:00 +16°C° 0.1 mm 3 m/s 758 mmHg 80%
17:00 +14°C° 0.1 mm 3 m/s 758 mmHg 81%
18:00 +14°C° 0.1 mm 4 m/s 758 mmHg 83%
19:00 +13°C° 0.1 mm 4 m/s 757 mmHg 86%
20:00 +13°C° 0.1 mm 3 m/s 757 mmHg 89%
21:00 +12°C° 0.1 mm 3 m/s 757 mmHg 92%
22:00 +12°C° 0.3 mm 3 m/s 756 mmHg 94%
23:00 +12°C° 0.3 mm 3 m/s 756 mmHg 95%

15 Juillet, Mercredi

Heure Température Précipitation Vent Pression Humidité
00:00 +12°C° 0.3 mm 3 m/s 756 mmHg 96%
01:00 +12°C° 0.5 mm 3 m/s 755 mmHg 96%
02:00 +12°C° 0.5 mm 3 m/s 755 mmHg 96%
03:00 +14°C° 0.5 mm 2 m/s 755 mmHg 96%
04:00 +14°C° 0.1 mm 2 m/s 755 mmHg 95%
05:00 +14°C° 0.1 mm 2 m/s 755 mmHg 95%
06:00 +15°C° 0.1 mm 2 m/s 755 mmHg 95%
07:00 +14°C° 0 mm 3 m/s 755 mmHg 92%
08:00 +16°C° 0 mm 3 m/s 756 mmHg 88%
09:00 +17°C° 0 mm 4 m/s 756 mmHg 85%
10:00 +17°C° 0.1 mm 4 m/s 757 mmHg 83%
11:00 +18°C° 0.1 mm 4 m/s 757 mmHg 80%
12:00 +18°C° 0.1 mm 3 m/s 758 mmHg 77%
13:00 +18°C° 0 mm 3 m/s 758 mmHg 76%
14:00 +19°C° 0 mm 3 m/s 758 mmHg 75%
15:00 +19°C° 0 mm 3 m/s 759 mmHg 74%
16:00 +18°C° 0 mm 2 m/s 759 mmHg 75%
17:00 +18°C° 0 mm 2 m/s 759 mmHg 77%
18:00 +18°C° 0 mm 2 m/s 760 mmHg 78%
19:00 +18°C° 0 mm 1 m/s 760 mmHg 81%
20:00 +16°C° 0 mm 1 m/s 760 mmHg 83%
21:00 +14°C° 0 mm 0 m/s 761 mmHg 85%
22:00 +15°C° 0 mm 1 m/s 761 mmHg 86%
23:00 +15°C° 0 mm 1 m/s 761 mmHg 87%

16 Juillet, Jeudi

Heure Température Précipitation Vent Pression Humidité
00:00 +15°C° 0 mm 1 m/s 761 mmHg 88%
01:00 +14°C° 0 mm 1 m/s 761 mmHg 90%
02:00 +13°C° 0 mm 2 m/s 761 mmHg 92%
03:00 +13°C° 0 mm 2 m/s 761 mmHg 93%
04:00 +13°C° 0 mm 2 m/s 761 mmHg 91%
05:00 +14°C° 0 mm 2 m/s 761 mmHg 89%
06:00 +14°C° 0 mm 3 m/s 762 mmHg 88%
07:00 +16°C° 0 mm 3 m/s 762 mmHg 83%
08:00 +17°C° 0 mm 4 m/s 762 mmHg 78%
09:00 +18°C° 0 mm 4 m/s 762 mmHg 74%
10:00 +19°C° 0 mm 4 m/s 762 mmHg 73%
11:00 +20°C° 0 mm 4 m/s 762 mmHg 73%
12:00 +20°C° 0 mm 5 m/s 762 mmHg 72%
13:00 +21°C° 0.1 mm 5 m/s 762 mmHg 72%
14:00 +21°C° 0.1 mm 5 m/s 762 mmHg 71%
15:00 +21°C° 0.1 mm 5 m/s 761 mmHg 71%
16:00 +21°C° 0 mm 5 m/s 761 mmHg 73%
17:00 +21°C° 0 mm 6 m/s 761 mmHg 75%
18:00 +20°C° 0 mm 6 m/s 761 mmHg 78%
19:00 +19°C° 0 mm 5 m/s 761 mmHg 80%
20:00 +17°C° 0 mm 5 m/s 762 mmHg 83%
21:00 +17°C° 0 mm 5 m/s 762 mmHg 86%
22:00 +16°C° 0 mm 5 m/s 762 mmHg 87%
23:00 +16°C° 0 mm 5 m/s 761 mmHg 87%
Voir plus